Location: La Oliva
(42.2466°N, 2.9955°E)
Time: 11:27:10
(UTC+00:00)

Cosmos 1356 - Pass Details

Date: 22 April 2021
Orbit: 438 x 442 km, 81.1° (Epoch: 10 May)

Event Time Altitude Azimuth Distance (km) Brightness Sun altitude
Rises 20:00:51 0° 346° (NNW) 2,443 7.9 -14.8°
Reaches altitude 10° 20:02:56 10° 344° (NNW) 1,567 6.9 -15.1°
Maximum altitude 20:06:19 63° 263° (W) 499 3.8 -15.6°
Enters shadow 20:08:47 17° 184° (S) 1,189 5.2 -16.0°
